This demonstration page uses our WeatherBlox Daily Observations layout. Learn more.

Left ArrowRight Arrow

39.12711, -84.51439

Hourly Observations for October 24, 2021

Temp ( °F °C ) Dew Point ( °F °C ) Humidity (%) Winds ( mph kmh ) Pressure ( in mb ) Visibility ( mi km ) Precip ( " mm )
12:30 am 00:30 Cloudy with Mist and Fog 54 12.2 54 12.2 100 100 N N/A 30.04 1017 5 8 N/A
12:40 am 00:40 Cloudy with Light Rain 54 12.2 54 12.2 100 100 N N/A 30.04 1017 4 6 0.00 0.00
12:53 am 00:53 Cloudy with Mist and Fog 54 12.2 54 12.2 100 100 N N/A 30.04 1017 6 10 0.00 0.00
1:20 am 01:20 Cloudy 54 12.2 54 12.2 100 100 N N/A 30.04 1017 9 14 N/A
1:53 am 01:53 Cloudy with Mist and Fog 54 12.2 54 12.2 100 100 N N/A 30.04 1017 6 10 N/A
2:20 am 02:20 Cloudy with Light Rain 54 12.2 54 12.2 100 100 N N/A 30.05 1018 5 8 0.01 0.25
2:32 am 02:32 Cloudy 54 12.2 54 12.2 100 100 N N/A 30.05 1018 8 13 0.01 0.25
2:40 am 02:40 Cloudy 54 12.2 54 12.2 100 100 N N/A 30.05 1018 8 13 0.01 0.25
2:53 am 02:53 Cloudy 54 12.2 54 12.2 100 100 N N/A 30.05 1018 8 13 0.01 0.25
3:05 am 03:05 Cloudy 55 12.8 54 12.2 96 96 N N/A 30.05 1018 8 13 N/A
3:46 am 03:46 Cloudy with Mist and Fog 54 12.2 54 12.2 100 100 N N/A 30.04 1017 6 10 N/A
3:53 am 03:53 Cloudy with Mist and Fog 54 12.2 54 12.2 100 100 N N/A 30.04 1017 6 10 N/A
4:09 am 04:09 Cloudy with Mist and Fog 54 12.2 54 12.2 100 100 ENE 3 6 30.03 1017 5 8 N/A
4:38 am 04:38 Cloudy with Mist and Fog 54 12.2 54 12.2 100 100 N N/A 30.02 1017 5 8 N/A
4:53 am 04:53 Cloudy with Mist and Fog 54 12.2 54 12.2 100 100 N N/A 30.02 1017 5 8 N/A
5:30 am 05:30 Cloudy with Mist and Fog 53 11.7 53 11.7 100 100 N N/A 30.03 1017 3 4 N/A
5:49 am 05:49 Cloudy with Mist and Fog 54 12 54 12 100 100 N N/A 30.02 1017 4 6 N/A
5:53 am 05:53 Cloudy with Mist and Fog 53 11.7 53 11.7 100 100 N N/A 30.02 1017 4 6 N/A
5:57 am 05:57 Cloudy with Mist and Fog 53 11.7 53 11.7 100 100 N N/A 30.02 1017 2 2 N/A
6:02 am 06:02 Cloudy with Mist and Fog 53 11.7 53 11.7 100 100 N N/A 30.03 1017 1 1 N/A
6:11 am 06:11 Mostly Cloudy with Mist and Fog 53 11.7 53 11.7 100 100 N N/A 30.03 1017 2 3 N/A
6:17 am 06:17 Cloudy with Mist and Fog 52 11.1 52 11.1 100 100 N N/A 30.04 1017 1 1 N/A
6:40 am 06:40 Cloudy with Mist and Fog 52 11.1 52 11.1 100 100 N N/A 30.04 1017 2 2 N/A
6:48 am 06:48 Cloudy with Mist and Fog 54 12 54 12 100 100 N N/A 30.03 1017 3 5 N/A
6:53 am 06:53 Cloudy with Mist and Fog 53 11.7 53 11.7 100 100 N N/A 30.03 1017 4 6 N/A
7:34 am 07:34 Cloudy with Mist and Fog 54 12.2 54 12.2 100 100 N N/A 30.02 1017 5 8 N/A
7:53 am 07:53 Cloudy with Mist and Fog 54 12.2 54 12.2 100 100 ENE 3 6 30.01 1016 6 10 N/A
8:53 am 08:53 Cloudy 56 13.3 54 12.2 93 93 N N/A 30.01 1016 10 16 N/A
9:53 am 09:53 Cloudy with Light Rain 56 13.3 55 12.8 97 97 N N/A 30.00 1016 8 13 0.00 0.00
10:53 am 10:53 Cloudy with Light Rain 56 13.3 55 12.8 97 97 ESE 5 7 30.01 1016 4 6 0.08 2.03
10:55 am 10:55 Cloudy with Light Rain 56 13.3 55 12.8 97 97 SE 5 7 30.01 1016 3 4 0.01 0.25
11:02 am 11:02 Cloudy with Light Rain 56 13.3 55 12.8 97 97 S 6 9 30.01 1016 4 6 0.03 0.76
11:48 am 11:48 Cloudy with Thunderstorms 57 14 55 13 94 94 SSW 6 9 30.01 1016 3 5 0.11 2.79
11:53 am 11:53 Mostly Cloudy with Thunderstorms 57 13.9 57 13.9 100 100 N N/A 30.00 1016 3 5 0.13 3.30
12:07 pm 12:07 Cloudy with Light Rain 57 13.9 57 13.9 100 100 N N/A 30.02 1017 3 5 0.01 0.25
12:53 pm 12:53 Cloudy with Mist and Fog 58 14.4 57 13.9 97 97 S 3 6 29.97 1015 6 10 0.01 0.25
1:53 pm 13:53 Cloudy 61 16.1 59 15 93 93 S 3 6 29.94 1014 10 16 N/A
2:05 pm 14:05 Cloudy with Thunderstorms 61 16.1 59 15 93 93 S 6 9 29.95 1014 10 16 N/A
2:32 pm 14:32 Cloudy with Light Rain 60 15.6 59 15 96 96 N N/A 29.92 1013 3 5 0.09 2.29
2:53 pm 14:53 Cloudy with Light Rain 62 16.7 60 15.6 93 93 S 6 9 29.91 1013 6 10 0.09 2.29
3:12 pm 15:12 Mostly Cloudy with Light Rain 63 17.2 62 16.7 97 97 VRB 3 6 29.89 1012 10 16 0.01 0.25
3:53 pm 15:53 Sunny 66 18.9 64 17.8 93 93 S 5 7 29.88 1012 10 16 0.01 0.25
4:53 pm 16:53 Mostly Sunny 69 20.6 66 18.9 90 90 S 5 7 29.85 1011 10 16 N/A
5:53 pm 17:53 Sunny 72 22.2 66 18.9 82 82 SSW 12 19 29.83 1010 10 16 N/A
6:53 pm 18:53 Clear 70 21.1 64 17.8 82 82 SSW 10 17 29.83 1010 10 16 N/A
7:53 pm 19:53 Clear 69 20.6 63 17.2 81 81 SSW 9 15 29.83 1010 10 16 N/A
8:53 pm 20:53 Clear 69 20.6 62 16.7 78 78 S 13 20 29.81 1009 10 16 N/A
9:53 pm 21:53 Clear 69 20.6 62 16.7 78 78 SSW 14 22 29.81 1010 10 16 N/A
10:53 pm 22:53 Clear 69 20.6 60 15.6 73 73 SSW 18 30 29.81 1010 10 16 N/A
11:53 pm 23:53 Clear 67 19.4 59 15 76 76 S 14 22 29.81 1010 10 16 N/A

Powered by AerisWeather